Time,TemperatureF,DewpointF,PressureIn,WindDirection,WindDirectionDegrees,WindSpeedMPH,WindSpeedGustMPH,Humidity,HourlyPrecipIn,Conditions,Clouds,dailyrainin,SoftwareType,DateUTC
2013-09-17 00:23:00,61.0,58.0,29.91,SE,125,3.0,5.0,89,0.00,,,0.08,,2013-09-17 05:23:00,
2013-09-17 00:34:00,61.0,58.0,29.91,SE,125,3.0,5.0,89,0.00,,,0.08,,2013-09-17 05:34:00,
2013-09-17 00:52:00,61.0,57.0,29.91,ESE,116,3.0,5.0,88,0.00,,,0.08,,2013-09-17 05:52:00,
2013-09-17 01:22:00,61.0,57.0,29.91,East,101,3.0,7.0,88,0.00,,,0.07,,2013-09-17 06:22:00,
2013-09-17 01:52:00,61.0,58.0,29.91,SE,138,5.0,9.0,89,0.00,,,0.07,,2013-09-17 06:52:00,
2013-09-17 02:23:00,61.0,58.0,29.91,ESE,114,3.0,8.0,89,0.00,,,0.06,,2013-09-17 07:23:00,
2013-09-17 02:52:00,61.0,58.0,29.91,SE,127,6.0,12.0,90,0.00,,,0.06,,2013-09-17 07:52:00,
2013-09-17 03:22:00,61.0,58.0,29.91,ESE,111,5.0,12.0,90,0.01,,,0.06,,2013-09-17 08:22:00,
2013-09-17 03:52:00,62.0,59.0,29.91,ESE,110,6.0,12.0,89,0.01,,,0.06,,2013-09-17 08:52:00,
2013-09-17 04:22:00,62.0,59.0,29.91,East,101,5.0,8.0,89,0.01,,,0.06,,2013-09-17 09:22:00,
2013-09-17 04:53:00,61.0,58.0,29.91,SE,127,6.0,9.0,90,0.00,,,0.06,,2013-09-17 09:53:00,
2013-09-17 05:21:00,61.0,58.0,29.91,SE,124,6.0,13.0,89,0.00,,,0.05,,2013-09-17 10:21:00,
2013-09-17 05:23:00,61.0,58.0,29.91,SE,138,5.0,9.0,90,0.00,,,0.05,,2013-09-17 10:23:00,
2013-09-17 05:33:00,61.0,58.0,29.91,SE,138,5.0,9.0,90,0.00,,,0.05,,2013-09-17 10:33:00,
2013-09-17 05:53:00,61.0,58.0,29.91,SE,124,6.0,13.0,89,0.00,,,0.05,,2013-09-17 10:53:00,
2013-09-17 06:03:00,61.0,58.0,29.91,SE,124,6.0,13.0,89,0.00,,,0.05,,2013-09-17 11:03:00,
2013-09-17 06:11:00,61.0,58.0,29.91,SE,124,6.0,13.0,89,0.00,,,0.05,,2013-09-17 11:11:00,
2013-09-17 07:52:00,60.0,57.0,29.91,SE,125,5.0,8.0,91,0.00,,,0.05,,2013-09-17 12:52:00,
2013-09-17 08:22:00,60.0,58.0,29.91,SE,133,6.0,9.0,92,0.00,,,0.05,,2013-09-17 13:22:00,
2013-09-17 08:32:00,60.0,58.0,29.91,SE,133,6.0,9.0,92,0.00,,,0.05,,2013-09-17 13:32:00,
2013-09-17 08:52:00,60.0,58.0,29.91,SE,133,6.0,9.0,92,0.00,,,0.05,,2013-09-17 13:52:00,
2013-09-17 09:22:00,60.0,58.0,29.91,SSE,164,5.0,8.0,92,0.00,,,0.04,,2013-09-17 14:22:00,
2013-09-17 09:52:00,60.0,58.0,29.91,ESE,123,3.0,6.0,92,0.00,,,0.04,,2013-09-17 14:52:00,
2013-09-17 10:22:00,61.0,59.0,29.91,SE,133,2.0,6.0,93,0.00,,,0.04,,2013-09-17 15:22:00,
2013-09-17 10:34:00,61.0,59.0,29.91,SE,133,2.0,6.0,93,0.00,,,0.04,,2013-09-17 15:34:00,
2013-09-17 12:24:00,65.0,63.0,29.91,SE,138,6.0,10.0,93,0.00,,,0.04,,2013-09-17 17:24:00,
2013-09-17 12:53:00,66.0,64.0,29.91,SE,140,5.0,10.0,93,0.00,,,0.04,,2013-09-17 17:53:00,
2013-09-17 13:22:00,68.0,65.0,29.91,SE,144,5.0,12.0,91,0.00,,,0.04,,2013-09-17 18:22:00,
2013-09-17 13:52:00,69.0,66.0,29.91,SE,145,6.0,10.0,89,0.00,,,0.04,,2013-09-17 18:52:00,
2013-09-17 14:22:00,72.0,66.0,29.91,SSE,164,7.0,12.0,81,0.01,,,0.04,,2013-09-17 19:22:00,
2013-09-17 14:30:00,73.0,66.0,29.91,SE,146,7.0,10.0,79,0.01,,,0.04,,2013-09-17 19:30:00,
2013-09-17 14:52:00,73.0,66.0,29.91,SE,146,7.0,10.0,79,0.01,,,0.04,,2013-09-17 19:52:00,
2013-09-17 15:11:00,73.0,66.0,29.91,SE,146,7.0,10.0,79,0.01,,,0.04,,2013-09-17 20:11:00,
2013-09-17 15:22:00,73.0,66.0,29.91,SE,146,7.0,10.0,79,0.01,,,0.04,,2013-09-17 20:22:00,
2013-09-17 16:54:00,74.0,66.0,29.91,SSE,149,6.0,12.0,75,0.00,,,0.04,,2013-09-17 21:54:00,
2013-09-17 17:24:00,74.0,66.0,29.91,South,174,6.0,12.0,76,0.00,,,0.04,,2013-09-17 22:24:00,
2013-09-17 17:53:00,74.0,66.0,29.91,South,178,6.0,12.0,76,0.00,,,0.04,,2013-09-17 22:53:00,
2013-09-17 18:22:00,73.0,65.0,29.91,South,176,6.0,12.0,75,0.00,,,0.04,,2013-09-17 23:22:00,
2013-09-17 18:52:00,72.0,65.0,29.91,SSE,150,5.0,8.0,78,0.00,,,0.04,,2013-09-17 23:52:00,
2013-09-17 19:22:00,71.0,65.0,29.91,SSE,163,5.0,12.0,81,0.00,,,0.04,,2013-09-18 00:22:00,
2013-09-17 19:52:00,70.0,65.0,29.91,SSE,149,5.0,7.0,83,0.00,,,0.04,,2013-09-18 00:52:00,
2013-09-17 20:11:00,69.0,64.0,29.91,SE,145,3.0,7.0,84,0.00,,,0.04,,2013-09-18 01:11:00,
2013-09-17 20:21:00,69.0,64.0,29.91,SE,145,3.0,7.0,84,0.00,,,0.04,,2013-09-18 01:21:00,
2013-09-17 20:32:00,69.0,64.0,29.91,SE,145,3.0,7.0,84,0.00,,,0.04,,2013-09-18 01:32:00,
2013-09-17 22:23:00,68.0,64.0,29.91,SE,137,5.0,9.0,86,0.00,,,0.03,,2013-09-18 03:23:00,
2013-09-17 22:51:00,67.0,64.0,29.91,SE,139,5.0,7.0,90,0.00,,,0.03,,2013-09-18 03:51:00,
2013-09-17 22:55:00,67.0,64.0,29.91,SE,146,5.0,8.0,90,0.00,,,0.03,,2013-09-18 03:55:00,
2013-09-17 23:14:00,67.0,64.0,29.91,SE,146,5.0,9.0,90,0.00,,,0.03,,2013-09-18 04:14:00,
2013-09-17 23:24:00,67.0,64.0,29.91,SE,139,5.0,7.0,90,0.00,,,0.03,,2013-09-18 04:24:00,
2013-09-17 23:34:00,67.0,64.0,29.91,SE,139,5.0,7.0,90,0.00,,,0.03,,2013-09-18 04:34:00,